(135413) = 2001 UA22

Discovered at Socorro on 2001-10-17 by LINEAR.

Orbit

Orbit type: Main Belt

Note: WebGL enabled browser required.

epoch2024-03-31.0
epoch JD2460400.5
perihelion date2024-01-21.62181
perihelion JD2460331.12181
argument of perihelion (°)162.37443
ascending node (°)277.58142
inclination (°)6.20797
eccentricity0.1740809
perihelion distance (AU)2.1962124
Tisserand w.r.t. Jupiter3.4
ΔV w.r.t. Earth (km/sec)9.5
semimajor axis (AU)2.6591131
mean anomaly (°)15.76963
mean daily motion (°/day)0.22729960
aphelion distance (AU)3.122
period (years)4.34
P-vector [x]0.17264697
P-vector [y]0.89018082
P-vector [z]0.42162913
Q-vector [x]-0.97913371
Q-vector [y]0.20168724
Q-vector [z]-0.02488833
absolute magnitude15.54
phase slope0.15
uncertainty0
referenceMPEC 2024-F74
observations used1147
oppositions17
arc length (days)11028
first opposition used1994
last opposition used2024
residual rms (arc-secs)0.63
perturbers coarse indicatorM-v
perturbers precise indicator003Ek
first observation date used1994-01-10.0
last observation date used2024-03-21.0
computer nameMPCLINUX
JD of orbit computation2456966.725990
perihelion JD uncertainty (days)7.1526E-05
argument of perihelion uncertainty (°)4.2837E-05
ascending node uncertainty (°)3.8665E-05
inclination uncertainty (°)4.2431E-06
eccentricity uncertainty 3.7876E-08
perihelion distance uncertainty (AU)1.0386E-07
Minimum Orbit Intersection Distances (in AU)
for orbit epoch: 2460400.5, reference: E2024-F74
Mercury1.88884
Venus1.47638
Earth1.21333
Mars0.624
Jupiter2.12037
Saturn6.82599
Uranus15.7521
Neptune27.2617

Observations

1176 total observations over interval: 1994 01 10.20655 – 2024 03 21.155045
These data are available for download (format description).

Date (UT) J2000 RA J2000 Dec Magn Location Ref
1994 01 10.20655 08 23 24.57 +15 32 43.9 18.1 V 691 – Steward Observatory, Kitt Peak-Spacewatch MPS 175512
1994 01 10.23949 08 23 22.66 +15 32 43.3   691 – Steward Observatory, Kitt Peak-Spacewatch MPS 175512
1994 01 10.27248 08 23 20.62 +15 32 42.0   691 – Steward Observatory, Kitt Peak-Spacewatch MPS 175512
2001 08 27.36932 00 45 55.06 +15 01 19.2 19.5   644 – Palomar Mountain/NEAT MPS 44396
2001 08 27.37995 00 45 54.86 +15 01 20.4 19.7   644 – Palomar Mountain/NEAT MPS 44396
2001 08 27.39223 00 45 54.62 +15 01 21.8 20.3   644 – Palomar Mountain/NEAT MPS 44396
2001 09 10.34120 00 39 19.18 +15 05 11.0 19.9   704 – Lincoln Laboratory ETS, New Mexico MPS 44396
2001 09 10.35483 00 39 18.76 +15 05 09.6 19.9   704 – Lincoln Laboratory ETS, New Mexico MPS 44396
2001 09 10.36848 00 39 18.23 +15 05 08.7 19.9   704 – Lincoln Laboratory ETS, New Mexico MPS 44396
2001 09 10.38212 00 39 17.59 +15 05 07.2 19.8   704 – Lincoln Laboratory ETS, New Mexico MPS 44396
2001 09 11.38024 00 38 39.05 +15 03 49.7 18.9 R 699 – Lowell Observatory-LONEOS MPS 44396
2001 09 11.40070 00 38 38.22 +15 03 48.9   699 – Lowell Observatory-LONEOS MPS 44396
2001 09 11.42121 00 38 37.39 +15 03 47.1   699 – Lowell Observatory-LONEOS MPS 44396
2001 09 11.44178 00 38 36.50 +15 03 44.7   699 – Lowell Observatory-LONEOS MPS 44396
2001 09 21.22423 00 31 20.58 +14 39 41.0 19.2 R 699 – Lowell Observatory-LONEOS MPS 44396
2001 09 21.24850 00 31 19.33 +14 39 37.5   699 – Lowell Observatory-LONEOS MPS 44396
2001 09 21.27262 00 31 18.14 +14 39 32.0   699 – Lowell Observatory-LONEOS MPS 44396
2001 09 21.29676 00 31 16.87 +14 39 26.6   699 – Lowell Observatory-LONEOS MPS 44396
2001 09 25.25946 00 27 57.71 +14 24 06.3 18.7   704 – Lincoln Laboratory ETS, New Mexico MPS 55063
2001 09 25.27445 00 27 56.94 +14 24 02.7 18.8   704 – Lincoln Laboratory ETS, New Mexico MPS 55063
2001 09 25.28947 00 27 56.12 +14 23 59.2 18.8   704 – Lincoln Laboratory ETS, New Mexico MPS 55063
2001 09 25.30446 00 27 55.33 +14 23 55.6 18.9   704 – Lincoln Laboratory ETS, New Mexico MPS 55063
2001 09 25.31944 00 27 54.56 +14 23 51.9 19.0   704 – Lincoln Laboratory ETS, New Mexico MPS 55063
2001 09 29.31868 00 24 26.59 +14 05 28.0 19.4   644 – Palomar Mountain/NEAT MPS 44396
2001 09 29.33895 00 24 25.48 +14 05 21.9 19.4   644 – Palomar Mountain/NEAT MPS 44396
2001 09 29.36047 00 24 24.31 +14 05 15.3 19.4   644 – Palomar Mountain/NEAT MPS 44396
2001 10 13.28542 00 12 29.12 +12 44 11.5 19.6   644 – Palomar Mountain/NEAT MPS 44396
2001 10 13.30674 00 12 28.07 +12 44 03.5 19.7   644 – Palomar Mountain/NEAT MPS 44396
2001 10 13.32790 00 12 27.00 +12 43 55.1 19.6   644 – Palomar Mountain/NEAT MPS 44396
2001 10 17.24045 00 09 26.53 +12 18 19.9 18.7   704 – Lincoln Laboratory ETS, New Mexico MPS 41022
2001 10 17.25660 00 09 25.77 +12 18 12.9 19.2   704 – Lincoln Laboratory ETS, New Mexico MPS 41022
2001 10 17.27258 00 09 25.05 +12 18 06.9 19.1   704 – Lincoln Laboratory ETS, New Mexico MPS 41022
2001 10 17.28855 00 09 24.34 +12 18 00.8 18.9   704 – Lincoln Laboratory ETS, New Mexico MPS 41022
2001 10 17.30489 00 09 23.54 +12 17 54.3 18.7   704 – Lincoln Laboratory ETS, New Mexico MPS 41022
2001 10 19.17865 00 08 03.03 +12 05 31.3 18.5   704 – Lincoln Laboratory ETS, New Mexico MPS 41022
2001 10 19.19546 00 08 02.30 +12 05 25.2 19.1   704 – Lincoln Laboratory ETS, New Mexico MPS 41022
2001 10 19.23012 00 08 00.81 +12 05 11.1 18.9   704 – Lincoln Laboratory ETS, New Mexico MPS 41022
2001 10 19.24641 00 08 00.07 +12 05 04.8 18.5   704 – Lincoln Laboratory ETS, New Mexico MPS 41022
2001 10 21.17246 00 06 41.64 +11 52 22.6 18.7   704 – Lincoln Laboratory ETS, New Mexico MPS 41022
2001 10 21.18863 00 06 41.02 +11 52 16.0 19.0   704 – Lincoln Laboratory ETS, New Mexico MPS 41022
2001 10 21.20468 00 06 40.33 +11 52 09.2 18.6   704 – Lincoln Laboratory ETS, New Mexico MPS 41022
2001 11 11.08418 23 58 28.90 +09 51 00.9 18.8 R 699 – Lowell Observatory-LONEOS MPS 44396
2001 11 11.10756 23 58 28.69 +09 50 54.4   699 – Lowell Observatory-LONEOS MPS 44396
2001 11 11.13101 23 58 28.41 +09 50 47.3   699 – Lowell Observatory-LONEOS MPS 44396
2001 11 11.15451 23 58 28.31 +09 50 41.9   699 – Lowell Observatory-LONEOS MPS 44396
2003 03 02.38161 11 00 10.20 -03 47 14.6 19.0   704 – Lincoln Laboratory ETS, New Mexico MPS 78135
2003 03 02.39799 11 00 09.30 -03 47 10.3 19.0   704 – Lincoln Laboratory ETS, New Mexico MPS 78135
2003 03 02.41338 11 00 08.35 -03 47 06.1 19.1   704 – Lincoln Laboratory ETS, New Mexico MPS 78135
2003 03 02.42885 11 00 07.38 -03 47 02.5 19.1   704 – Lincoln Laboratory ETS, New Mexico MPS 78135
2003 03 07.29638 10 55 42.28 -03 24 48.1 18.3   704 – Lincoln Laboratory ETS, New Mexico MPS 78135
2003 03 07.32249 10 55 40.81 -03 24 40.5 18.7   704 – Lincoln Laboratory ETS, New Mexico MPS 78135
2003 03 07.33562 10 55 40.04 -03 24 36.4 18.9   704 – Lincoln Laboratory ETS, New Mexico MPS 78135
2003 03 07.34857 10 55 39.31 -03 24 32.8 18.9   704 – Lincoln Laboratory ETS, New Mexico MPS 78135
2003 03 25.31112 10 41 12.86 -01 50 59.0 20.2   608 – Haleakala-AMOS MPS 78135
2003 03 25.32203 10 41 12.46 -01 50 55.7 20.4   608 – Haleakala-AMOS MPS 78135
2003 03 25.33310 10 41 11.94 -01 50 51.7 20.1   608 – Haleakala-AMOS MPS 78135
2003 04 11.21920 10 33 26.68 -00 32 41.5 20.4 V 691 – Steward Observatory, Kitt Peak-Spacewatch MPS 78135
2003 04 11.24563 10 33 26.28 -00 32 35.3 21.0 V 691 – Steward Observatory, Kitt Peak-Spacewatch MPS 78135
2003 04 11.27184 10 33 25.82 -00 32 29.5 21.2 V 691 – Steward Observatory, Kitt Peak-Spacewatch MPS 78135
2005 07 30.37041 22 24 09.61 -02 28 24.0 19.2   644 – Palomar Mountain/NEAT MPS 138856
2005 07 30.39121 22 24 08.85 -02 28 24.3 19.3   644 – Palomar Mountain/NEAT MPS 138856
2005 07 30.41849 22 24 07.79 -02 28 24.9 19.4   644 – Palomar Mountain/NEAT MPS 138856
2005 08 24.36394 22 04 17.46 -03 21 22.9 19.2   644 – Palomar Mountain/NEAT MPS 139614
2005 08 24.38542 22 04 16.28 -03 21 27.3 18.8   644 – Palomar Mountain/NEAT MPS 139614
2005 08 24.41438 22 04 14.68 -03 21 33.0 18.9   644 – Palomar Mountain/NEAT MPS 139614
2005 08 27.31311 22 01 39.17 -03 31 56.2 18.8 R 699 – Lowell Observatory-LONEOS MPS 140129
2005 08 27.33513 22 01 37.99 -03 32 00.3   699 – Lowell Observatory-LONEOS MPS 140129
2005 08 27.35716 22 01 36.71 -03 32 06.3   699 – Lowell Observatory-LONEOS MPS 140129
2005 08 27.37918 22 01 35.48 -03 32 11.1   699 – Lowell Observatory-LONEOS MPS 140129
2006 09 19.47993 07 12 00.63 +24 09 31.9 20.2 V 691 – Steward Observatory, Kitt Peak-Spacewatch MPS 180666
2006 09 19.49240 07 12 01.99 +24 09 29.2 19.6 V 691 – Steward Observatory, Kitt Peak-Spacewatch MPS 180666
2006 09 19.50487 07 12 03.29 +24 09 25.2 20.2 V 691 – Steward Observatory, Kitt Peak-Spacewatch MPS 180666
2006 09 25.47882 07 22 36.70 +23 41 09.4 20.3 V 691 – Steward Observatory, Kitt Peak-Spacewatch MPS 182371
2006 09 25.49135 07 22 38.01 +23 41 05.9 20.1 V 691 – Steward Observatory, Kitt Peak-Spacewatch MPS 182371
2006 09 25.50388 07 22 39.34 +23 41 00.8 19.8 V 691 – Steward Observatory, Kitt Peak-Spacewatch MPS 182371
2006 10 23.42729 08 04 50.00 +21 06 15.7 18.7   704 – Lincoln Laboratory ETS, New Mexico MPS 185159
2006 10 23.43951 08 04 50.91 +21 06 10.6 19.3   704 – Lincoln Laboratory ETS, New Mexico MPS 185159
2006 10 23.45179 08 04 51.76 +21 06 07.7 19.4   704 – Lincoln Laboratory ETS, New Mexico MPS 185159
2006 10 23.46371 08 04 52.67 +21 06 02.9 19.6   704 – Lincoln Laboratory ETS, New Mexico MPS 185159
2006 10 23.47567 08 04 53.56 +21 05 58.6 19.1   704 – Lincoln Laboratory ETS, New Mexico MPS 185159
2006 10 31.40297 08 14 11.43 +20 19 20.5 19.5 V G96 – Mt. Lemmon Survey MPS 186466
2006 10 31.41132 08 14 11.97 +20 19 17.5 19.6 V G96 – Mt. Lemmon Survey MPS 186466
2006 10 31.41983 08 14 12.51 +20 19 14.8 19.7 V G96 – Mt. Lemmon Survey MPS 186466
2006 10 31.42821 08 14 13.05 +20 19 11.8 19.6 V G96 – Mt. Lemmon Survey MPS 186466
2006 11 06.48085 08 20 20.63 +19 44 09.1 19.9 R 644 – Palomar Mountain/NEAT MPS 191714
2006 11 06.49158 08 20 21.22 +19 44 05.6 19.8 R 644 – Palomar Mountain/NEAT MPS 191714
2006 11 06.50233 08 20 21.79 +19 44 02.1 19.5 R 644 – Palomar Mountain/NEAT MPS 191714
